Temperature
17 17 17 17 17 17 17 17 16 16 16 16 16 16 16 16 16 16 16 16 16 16 15 15 15 15 15 15 15 15 15 14 14 14 14 14 14 14
17 17 17 17 16 16 17 16 16 16 16 16 16 16 16 15 16 15 15 15 15 15 15 15 15 15 14 14 14 14 14 14 14 14 14 13 13 13
16 16 16 16 16 16 16 16 16 16 16 15 15 15 15 15 15 15 15 14 14 14 14 14 14 14 14 14 14 14 13 13 13 13 13 13 13 13
16 16 16 16 16 16 16 16 15 15 15 15 15 15 15 15 15 14 14 14 14 14 14 14 14 13 13 13 13 13 13 13 13 13 12 12 12 12
16 16 16 16 16 16 15 15 15 15 15 15 15 14 14 14 14 14 14 14 13 13 13 13 13 13 13 12 12 12 12 12 12 12 12 12 12 12
15 15 15 15 15 15 15 15 15 15 14 14 14 14 14 14 13 13 13 13 13 13 12 12 12 12 12 12 12 11 11 11 11 11 11 11 11 11
15 15 15 15 15 15 14 14 14 14 14 14 14 13 13 13 13 13 12 12 12 12 12 12 11 11 11 11 11 11 11 11 11 10 10 10 10 10
15 14 14 14 14 14 14 14 14 14 13 13 13 13 12 12 12 12 12 12 11 11 11 11 11 11 10 10 10 10 10 10 10 10 10 10 10 10
14 14 13 13 13 13 13 13 13 13 13 13 12 12 12 12 12 11 11 11 11 11 11 10 10 10 10 10 10 9 9 9 9 9 9 9 9 9
13 13 13 13 13 13 13 12 12 12 12 12 12 11 11 11 11 11 11 11 10 10 10 10 10 9 9 9 9 9 9 9 9 9 8 8 8 8
13 12 12 12 12 12 12 12 12 11 11 11 11 11 11 10 10 10 10 10 10 10 9 9 9 9 9 9 8 8 8 8 8 8 8 8 8 8
12 12 12 12 11 11 11 11 11 11 11 10 10 10 10 10 10 10 10 10 9 9 9 8 8 8 8 8 8 8 8 8 8 8 7 7 7 7
12 11 11 11 11 11 11 11 10 10 10 10 10 10 10 9 9 9 9 9 9 8 8 8 8 8 8 7 8 7 7 7 7 7 7 7 7 7
11 11 10 10 11 10 10 10 10 10 9 9 9 9 9 9 9 8 8 8 8 8 8 8 8 8 8 7 7 7 7 7 7 7 7 7 7 7
10 10 10 10 10 10 10 9 9 9 9 9 9 9 8 8 8 8 8 8 8 8 8 8 7 7 7 7 7 7 7 7 7 7 6 6 6 6
10 10 10 10 9 9 9 9 9 9 9 8 8 8 8 8 8 8 8 8 8 8 7 7 7 7 7 7 7 7 7 6 6 6 6 6 6 6
9 9 9 9 9 9 9 8 8 8 8 8 8 8 8 8 8 7 7 7 7 7 7 7 7 7 7 7 7 7 6 6 6 6 6 6 6 6
9 9 9 9 8 8 8 8 8 8 8 8 8 8 7 7 7 7 7 7 7 7 7 7 7 7 7 7 7 6 6 6 6 6 6 6 6 6
9 9 8 8 8 8 8 8 8 7 7 7 7 7 7 7 7 7 7 7 7 7 7 7 7 7 6 6 6 6 6 6 6 6 6 6 5 5
8 8 8 8 8 8 7 7 7 7 7 7 7 7 7 7 7 7 7 7 7 7 7 7 7 6 6 6 6 6 6 6 6 6 6 5 5 5
8 8 8 8 7 7 7 7 7 7 7 7 7 7 7 7 7 7 7 6 6 6 6 6 6 6 6 6 6 6 6 6 6 6 5 5 5 5
8 7 7 7 7 7 7 7 7 7 7 7 7 6 6 6 6 6 6 6 6 6 6 6 6 6 6 6 6 6 6 6 6 5 5 5 5 5
7 7 7 7 7 7 7 7 7 7 6 6 6 6 6 6 6 6 6 6 6 6 6 6 6 6 6 6 6 6 5 5 5 5 5 5 5 5
Wind_Speed
2 2 2 2 2 3 3 4 4 2 3 2 1 1 0 0 1 1 1 2 3 5 6 7 6 6 6 6 7 8 8 8 8 8 9 9 10 10
1 1 1 1 1 1 2 2 3 3 3 2 1 1 0 1 1 1 2 2 2 1 2 4 5 5 5 4 4 5 5 5 5 5 5 6 6 7
1 0 1 1 0 0 0 1 1 2 2 1 0 1 1 1 2 2 2 3 3 3 2 3 4 4 4 3 2 2 3 2 2 2 3 3 4 4
1 1 2 1 1 1 1 1 1 1 2 0 1 1 1 1 1 2 3 3 3 3 3 4 5 5 4 4 3 2 2 2 1 1 0 0 1 1
1 1 2 2 2 1 1 1 1 2 2 2 1 1 1 1 2 2 3 3 3 4 4 4 5 5 4 4 3 3 3 3 2 2 2 2 2 1
2 2 3 3 2 2 2 2 3 3 3 3 1 1 1 1 1 1 2 2 3 4 5 5 5 5 4 3 3 3 3 4 4 5 4 4 3 3
4 4 5 6 7 5 4 3 4 3 3 3 2 2 2 1 1 0 2 2 3 3 3 3 3 3 4 4 4 4 5 5 6 6 5 5 4 3
4 4 5 7 8 10 11 9 7 5 3 3 2 2 1 1 1 1 2 2 1 2 2 3 2 2 2 3 5 6 6 6 6 6 6 5 5 4
5 5 5 6 7 6 9 11 10 10 6 4 4 2 1 1 1 2 2 2 1 1 2 2 3 2 2 4 5 6 6 6 5 5 5 5 6 5
6 5 6 5 6 6 7 7 7 7 6 5 4 2 2 2 2 2 2 2 2 2 2 2 2 1 2 3 5 5 5 5 4 4 5 5 5 6
7 7 6 6 7 8 7 7 7 6 9 12 11 11 11 10 7 4 4 4 2 2 3 2 1 1 2 2 4 5 5 4 5 5 4 5 5 5
6 7 9 8 8 8 6 6 6 4 5 7 8 10 10 11 10 5 3 3 2 1 2 2 1 1 2 2 3 4 3 4 4 4 2 2 3 3
5 4 5 9 10 9 7 5 4 4 4 5 5 6 6 6 6 6 4 3 3 0 1 1 1 1 1 1 2 2 2 2 2 3 2 2 1 1
4 3 4 9 10 10 8 8 9 7 5 5 5 4 4 4 4 5 6 5 3 1 1 1 1 1 1 1 2 2 2 2 1 1 2 2 1 1
4 6 7 9 9 7 9 10 7 5 5 4 4 3 2 2 3 4 5 6 7 7 5 2 1 1 1 1 1 1 2 2 1 1 1 1 1 1
5 6 8 9 8 7 6 5 4 4 3 3 2 2 2 3 3 2 2 3 3 4 7 8 4 2 1 0 1 1 1 2 2 1 1 1 1 1
4 4 5 4 5 4 4 4 4 4 4 3 3 3 3 3 3 2 2 2 2 2 4 4 6 4 1 1 0 2 2 2 2 1 0 1 2 3
6 4 4 3 3 2 2 3 3 3 3 3 3 3 2 2 3 3 2 2 1 2 2 2 3 4 4 3 2 2 2 2 2 1 0 1 3 3
6 4 3 2 2 2 2 2 2 2 2 2 2 2 2 2 2 2 2 2 2 2 2 2 1 1 2 3 4 2 2 2 1 1 1 1 3 4
3 3 2 1 1 1 2 2 2 3 3 2 2 2 2 2 2 2 2 1 2 2 3 2 2 1 2 3 3 4 3 3 2 2 2 2 2 4
2 2 2 2 2 2 2 2 2 2 2 2 2 3 2 2 2 2 2 2 2 2 3 3 5 4 1 0 2 4 4 5 4 3 2 1 2 2
2 2 2 2 2 2 2 2 3 3 3 3 3 3 3 2 2 2 2 2 2 2 3 4 4 2 1 1 2 3 4 5 5 5 5 5 3 3
2 2 2 2 2 2 2 2 2 2 2 2 3 3 3 3 3 2 2 2 2 3 3 3 3 2 2 1 2 2 3 3 3 3 4 7 7 9
Wind_Direction
242 241 234 245 229 224 206 192 195 236 277 263 254 288 329 28 303 170 209 252 233 231 227 219 218 225 231 233 231 230 231 233 236 240 244 248 249 248
236 232 268 275 260 242 210 192 182 193 231 250 237 279 354 17 321 152 147 124 100 153 197 194 194 202 209 216 224 223 223 228 236 246 253 257 261 262
355 27 309 296 296 355 100 152 154 159 193 291 329 358 33 26 40 82 99 97 86 95 134 145 151 160 165 173 191 206 207 208 215 232 249 251 252 254
7 22 339 353 47 48 85 97 118 129 147 189 342 6 13 18 57 65 72 79 88 84 105 119 125 128 125 120 120 118 121 130 134 119 97 253 236 256
55 49 360 26 40 50 80 90 91 84 97 120 25 5 5 25 47 51 61 53 65 65 75 81 99 109 107 110 109 103 96 92 84 72 65 59 46 41
52 55 41 42 50 59 75 78 91 84 84 95 75 34 10 345 60 72 57 35 41 52 61 65 70 74 73 89 102 101 95 84 72 63 57 54 55 58
49 49 58 62 58 63 76 78 87 88 85 85 74 50 28 29 23 33 90 61 38 38 45 49 56 50 40 43 61 74 72 70 66 58 52 54 56 65
66 55 60 56 57 63 69 73 80 92 97 86 65 60 8 1 28 75 103 78 30 355 45 25 42 39 25 43 58 63 61 60 58 53 50 51 53 63
69 64 65 58 58 63 66 66 62 63 77 101 86 60 39 352 79 77 84 90 98 319 67 34 21 22 12 38 61 62 59 54 52 47 47 50 53 54
64 68 74 62 65 73 74 67 59 52 54 67 78 54 53 54 105 122 122 91 51 25 63 61 7 1 9 24 40 53 48 45 42 43 56 59 57 60
55 58 68 68 65 76 76 71 58 41 52 60 58 54 54 55 64 75 69 79 52 360 16 67 13 4 1 353 6 24 26 27 32 41 62 67 61 59
53 50 58 69 69 75 80 82 75 50 49 47 43 43 44 46 51 63 85 92 82 11 344 40 19 35 3 333 341 351 354 355 3 20 40 48 47 61
68 52 49 64 68 67 72 76 85 81 62 57 47 36 34 34 33 41 58 89 92 37 299 62 58 46 89 304 322 316 312 313 338 351 343 326 337 104
78 57 55 64 63 62 62 65 72 72 63 56 50 35 27 18 13 28 42 49 56 76 332 93 123 153 119 4 305 315 315 303 279 308 337 351 1 343
77 73 68 67 62 57 57 61 62 62 62 58 46 18 352 354 13 20 22 30 30 25 19 26 100 134 132 178 255 278 303 308 276 243 285 293 287 294
70 64 62 60 55 47 44 44 45 55 69 62 34 2 6 19 19 18 17 14 23 354 359 15 30 96 109 198 191 263 270 274 293 280 261 288 287 256
85 64 54 49 46 37 31 30 33 39 44 35 38 28 20 19 6 4 26 34 34 344 338 346 12 30 88 173 227 271 282 283 271 259 292 316 300 277
91 77 65 62 63 54 43 28 28 30 28 33 35 27 18 11 1 358 16 34 9 330 320 320 358 13 6 345 238 230 290 279 281 282 207 259 293 290
82 79 72 65 57 48 40 39 22 7 20 34 29 13 3 360 6 1 2 5 348 324 310 313 4 58 13 323 310 273 221 263 281 299 282 241 258 274
75 82 71 55 49 48 38 29 21 17 18 10 6 0 1 1 0 350 345 341 326 323 328 325 314 253 217 237 263 295 284 226 233 261 285 296 290 298
67 62 59 57 43 49 54 55 47 28 10 5 360 355 353 2 350 331 328 335 342 329 322 305 289 296 256 42 327 310 304 300 255 221 225 257 297 309
89 79 61 62 58 56 58 58 50 28 12 9 353 345 342 347 337 328 332 333 319 306 301 303 316 346 6 327 290 289 301 317 325 305 262 229 199 216
116 108 88 73 68 66 63 52 43 9 353 348 345 344 347 344 334 332 330 330 329 327 324 323 334 346 330 302 290 290 299 309 319 331 320 315 271 260
Height
1547 1547 1547 1547 1547 1547 1547 1547 1548 1547 1546 1547 1547 1547 1547 1546 1545 1545 1544 1543 1542 1542 1542 1542 1542 1542 1542 1543 1543 1543 1543 1544 1544 1543 1543 1543 1543 1543
1544 1544 1544 1544 1543 1543 1543 1543 1544 1544 1543 1544 1544 1544 1543 1543 1542 1541 1540 1540 1539 1539 1538 1538 1538 1538 1538 1538 1538 1538 1538 1538 1538 1538 1538 1538 1538 1538
1542 1542 1541 1541 1541 1541 1540 1541 1541 1541 1541 1541 1541 1541 1541 1540 1539 1539 1538 1537 1536 1536 1535 1534 1534 1534 1533 1533 1533 1534 1533 1533 1533 1533 1533 1533 1533 1533
1540 1540 1540 1539 1539 1538 1538 1538 1539 1539 1539 1539 1539 1539 1538 1538 1537 1536 1536 1535 1534 1533 1532 1532 1531 1531 1530 1530 1530 1530 1529 1529 1529 1528 1528 1528 1528 1528
1539 1538 1538 1538 1537 1537 1537 1537 1537 1537 1537 1537 1537 1537 1536 1536 1535 1535 1534 1533 1532 1532 1531 1530 1529 1528 1528 1528 1527 1527 1526 1526 1525 1525 1525 1524 1524 1524
1537 1537 1537 1536 1536 1536 1535 1535 1535 1535 1535 1535 1535 1535 1535 1534 1534 1533 1532 1532 1531 1530 1530 1529 1528 1528 1527 1526 1526 1525 1524 1524 1523 1522 1522 1522 1521 1521
1536 1536 1536 1536 1535 1535 1535 1534 1534 1534 1534 1534 1534 1534 1533 1532 1532 1532 1531 1530 1530 1530 1529 1528 1528 1527 1526 1525 1525 1524 1523 1522 1521 1521 1520 1520 1519 1519
1536 1536 1536 1536 1536 1535 1534 1534 1534 1534 1533 1533 1533 1532 1532 1532 1531 1531 1530 1529 1529 1530 1529 1528 1528 1526 1526 1525 1524 1523 1522 1521 1520 1520 1519 1518 1517 1517
1536 1536 1536 1536 1536 1536 1534 1534 1534 1534 1534 1534 1533 1532 1532 1531 1531 1530 1530 1529 1528 1528 1528 1527 1527 1526 1526 1525 1524 1523 1522 1521 1520 1519 1518 1517 1516 1516
1537 1537 1537 1537 1537 1537 1536 1535 1534 1534 1533 1533 1533 1532 1532 1531 1531 1530 1530 1529 1529 1528 1528 1527 1527 1526 1526 1526 1525 1523 1522 1521 1520 1519 1518 1517 1516 1515
1538 1538 1538 1538 1538 1538 1537 1536 1535 1535 1535 1534 1534 1533 1532 1532 1531 1530 1529 1529 1528 1528 1527 1527 1526 1526 1526 1525 1525 1523 1522 1521 1520 1519 1517 1517 1515 1514
1539 1539 1539 1539 1539 1539 1538 1537 1536 1536 1536 1535 1534 1534 1533 1532 1531 1531 1530 1529 1528 1528 1527 1527 1526 1526 1525 1525 1524 1523 1522 1521 1519 1518 1517 1516 1515 1513
1540 1541 1541 1541 1540 1540 1539 1538 1538 1538 1537 1536 1535 1535 1534 1533 1532 1531 1531 1530 1529 1528 1528 1527 1526 1526 1525 1524 1523 1523 1521 1520 1519 1518 1517 1516 1514 1513
1542 1542 1542 1542 1541 1541 1540 1540 1540 1539 1538 1538 1536 1536 1535 1534 1534 1533 1532 1531 1530 1529 1528 1528 1527 1526 1525 1523 1523 1522 1521 1520 1519 1517 1516 1515 1514 1512
1544 1544 1544 1543 1543 1542 1542 1542 1541 1540 1540 1539 1538 1537 1537 1536 1535 1534 1533 1532 1531 1530 1529 1528 1527 1526 1525 1524 1522 1521 1520 1519 1518 1517 1515 1514 1512 1511
1545 1545 1545 1545 1545 1544 1544 1543 1543 1542 1541 1540 1540 1539 1538 1537 1536 1535 1534 1533 1531 1530 1529 1528 1527 1526 1524 1523 1522 1521 1520 1518 1517 1516 1514 1513 1512 1510
1547 1547 1546 1546 1546 1546 1545 1545 1544 1543 1543 1542 1541 1540 1539 1538 1537 1535 1534 1533 1532 1530 1529 1528 1527 1526 1524 1523 1522 1520 1519 1517 1516 1515 1513 1512 1510 1509
1548 1548 1547 1547 1547 1547 1546 1546 1545 1544 1544 1543 1542 1541 1540 1538 1537 1536 1535 1534 1532 1531 1529 1528 1527 1525 1524 1522 1522 1520 1518 1516 1515 1513 1512 1510 1509 1507
1549 1549 1549 1548 1548 1548 1547 1547 1546 1545 1545 1543 1542 1541 1540 1539 1538 1536 1535 1534 1532 1531 1530 1528 1526 1524 1523 1521 1520 1519 1517 1515 1513 1512 1511 1509 1507 1505
1550 1550 1550 1549 1549 1548 1548 1547 1546 1545 1545 1544 1542 1541 1540 1539 1538 1536 1535 1534 1532 1531 1529 1528 1526 1524 1523 1521 1519 1517 1516 1514 1512 1510 1509 1507 1506 1504
1551 1551 1550 1550 1549 1549 1548 1547 1546 1545 1544 1543 1542 1541 1540 1538 1537 1536 1535 1533 1532 1530 1528 1527 1525 1524 1522 1520 1518 1516 1514 1513 1511 1509 1507 1506 1504 1502
1552 1551 1551 1550 1550 1549 1548 1547 1546 1545 1544 1543 1541 1540 1539 1538 1536 1535 1534 1532 1531 1529 1527 1526 1524 1522 1520 1518 1516 1514 1512 1511 1509 1508 1506 1504 1502 1500
1552 1552 1551 1551 1550 1549 1548 1547 1546 1544 1543 1542 1540 1539 1538 1537 1535 1534 1533 1531 1530 1528 1526 1524 1522 1520 1518 1517 1514 1512 1510 1509 1507 1505 1504 1502 1501 1499